カタログに戻る

COSMOS 397 DEB

運用中LEO
NORAD 5013·DEBRIS·🇷🇺 Russia

打ち上げ Feb 25, 1971 から Baikonur Cosmodrome

Loading…

次のパス

TLE

Source: Space-Track
1  5013U 71015G   26221.63900556  .00000013  00000-0  39214-4 0  9997
2  5013  65.8129 300.9463 0834282  73.7791 295.3327 13.18410807611583

AllMySatでCOSMOS 397 DEBをリアルタイム追跡

Download on the App Store